User: anonymous   Login
Location: Unnamed
(23.5608°S, 46.6833°W)
Time: 13:23:26
(UTC-03:00)
Language:

BEESAT - Orbit

View from above orbital plane
View from above orbital plane
View from above satellite
View from above satellite

Ground track
Ground track

The orbit data is extracted from the following two-line orbital elements,

1 35933U 09051C   23079.18328559  .00001511  00000-0  34374-3 0  9992
2 35933  98.5282 308.7949 0004697 300.6191  59.4543 14.57407741716403
Epoch (UTC): 20 March 2023 04:23:55
Eccentricity: 0.0004697
inclination: 98.5282°
perigee height: 698 km
apogee height: 705 km
right ascension of ascending node: 308.7949°
argument of perigee: 300.6191°
revolutions per day: 14.57407741
mean anomaly at epoch: 59.4543°
orbit number at epoch: 71640

The dashed part of the orbit path shows where the satellite is in the earth's shadow,  

DLR